Back to catalog

CZ-6A DEB

AlivePO
NORAD 61153·DEBRIS·🇨🇳 China

Launched Aug 6, 2024 from Taiyuan Satellite Launch Center

Loading…

Next Passes (next 24 hours)

TLE

FreshSource: Space-Track

Epoch: Sep 14, 2026, 11:30 UTC

1 61153U 24140QX  26257.47934566  .00000778  00000-0  33965-3 0  9994
2 61153  88.9978 264.5344 0040064 270.0119  89.6482 14.22554337107077

Track CZ-6A DEB in real time with AllMySat

Download on the App Store